TimeEST,TemperatureF,Dew PointF,Humidity,Sea Level PressureIn,VisibilityMPH,Wind Direction,Wind SpeedMPH,Gust SpeedMPH,PrecipitationIn,Events,Conditions,WindDirDegrees,DateUTC
12:15 AM,32.0,31.8,99,30.03,10.0,North,-9999.0,-,N/A,,Scattered Clouds,0,2013-02-15 05:15:00
12:35 AM,32.0,32.0,100,30.03,10.0,North,-9999.0,-,N/A,,Scattered Clouds,0,2013-02-15 05:35:00
12:55 AM,32.0,32.0,100,30.03,10.0,North,-9999.0,-,N/A,,Scattered Clouds,0,2013-02-15 05:55:00
1:15 AM,32.4,32.4,100,30.04,10.0,North,-9999.0,-,N/A,,Mostly Cloudy,0,2013-02-15 06:15:00
1:35 AM,32.5,32.4,99,30.04,10.0,North,-9999.0,-,N/A,,Mostly Cloudy,0,2013-02-15 06:35:00
1:55 AM,32.0,32.0,100,30.04,10.0,North,-9999.0,-,N/A,,Scattered Clouds,0,2013-02-15 06:55:00
2:15 AM,31.8,31.8,100,30.05,10.0,North,-9999.0,-,N/A,,Clear,0,2013-02-15 07:15:00
2:35 AM,31.5,31.5,100,30.05,10.0,North,-9999.0,-,N/A,,Clear,0,2013-02-15 07:35:00
2:55 AM,31.1,31.1,100,30.05,10.0,North,-9999.0,-,N/A,,Clear,0,2013-02-15 07:55:00
3:15 AM,30.9,30.9,100,30.05,10.0,North,-9999.0,-,N/A,,Clear,0,2013-02-15 08:15:00
3:35 AM,30.7,30.7,100,30.05,10.0,North,-9999.0,-,N/A,,Scattered Clouds,0,2013-02-15 08:35:00
3:55 AM,30.6,30.6,100,30.05,10.0,North,-9999.0,-,N/A,,Scattered Clouds,0,2013-02-15 08:55:00
4:15 AM,30.4,30.4,100,30.04,10.0,North,-9999.0,-,N/A,,Scattered Clouds,0,2013-02-15 09:15:00
4:35 AM,30.2,30.2,100,30.04,10.0,North,-9999.0,-,N/A,,Clear,0,2013-02-15 09:35:00
4:55 AM,30.2,30.2,100,30.04,10.0,North,-9999.0,-,N/A,,Clear,0,2013-02-15 09:55:00
5:15 AM,29.7,29.7,100,30.05,10.0,North,-9999.0,-,N/A,,Clear,0,2013-02-15 10:15:00
5:35 AM,29.3,29.3,100,30.05,10.0,North,-9999.0,-,N/A,,Clear,0,2013-02-15 10:35:00
5:55 AM,29.8,29.8,100,30.05,10.0,North,-9999.0,-,N/A,,Clear,0,2013-02-15 10:55:00
6:15 AM,29.3,29.3,100,30.06,10.0,North,-9999.0,-,N/A,,Clear,0,2013-02-15 11:15:00
6:35 AM,29.1,29.1,100,30.06,10.0,North,-9999.0,-,N/A,,Clear,0,2013-02-15 11:35:00
6:55 AM,28.9,28.9,100,30.05,10.0,North,-9999.0,-,N/A,,Clear,0,2013-02-15 11:55:00
7:15 AM,28.9,28.9,100,30.06,10.0,North,-9999.0,-,N/A,,Clear,0,2013-02-15 12:15:00
7:35 AM,28.9,28.9,100,30.06,7.0,North,-9999.0,-,N/A,,Clear,0,2013-02-15 12:35:00
7:55 AM,29.1,29.1,100,30.08,10.0,North,-9999.0,-,N/A,,Clear,0,2013-02-15 12:55:00
8:15 AM,30.0,30.0,100,30.08,10.0,North,-9999.0,-,N/A,,Clear,0,2013-02-15 13:15:00
8:35 AM,32.4,32.4,100,30.08,10.0,North,-9999.0,-,N/A,,Clear,0,2013-02-15 13:35:00
8:55 AM,34.3,34.2,99,30.08,10.0,North,-9999.0,-,N/A,,Clear,0,2013-02-15 13:55:00
9:15 AM,37.2,36.3,97,30.08,10.0,North,-9999.0,-,N/A,,Clear,0,2013-02-15 14:15:00
9:35 AM,39.7,37.4,91,30.06,10.0,North,-9999.0,-,N/A,,Clear,0,2013-02-15 14:35:00
9:55 AM,43.9,38.1,80,30.06,10.0,North,-9999.0,-,N/A,,Clear,0,2013-02-15 14:55:00
10:15 AM,46.9,37.4,69,30.06,10.0,North,-9999.0,-,N/A,,Clear,0,2013-02-15 15:15:00
10:35 AM,47.7,36.7,66,30.06,10.0,North,-9999.0,-,N/A,,Clear,0,2013-02-15 15:35:00
10:55 AM,48.2,36.7,64,30.05,10.0,North,-9999.0,-,N/A,,Scattered Clouds,0,2013-02-15 15:55:00
11:15 AM,48.7,37.0,64,30.05,10.0,North,-9999.0,-,N/A,,Mostly Cloudy,0,2013-02-15 16:15:00
11:35 AM,48.9,37.4,64,30.04,10.0,North,-9999.0,-,N/A,,Overcast,0,2013-02-15 16:35:00
11:55 AM,49.8,37.9,64,30.03,10.0,North,-9999.0,-,N/A,,Overcast,0,2013-02-15 16:55:00
12:35 PM,51.4,37.6,59,30.02,10.0,North,-9999.0,-,N/A,,Mostly Cloudy,0,2013-02-15 17:35:00
12:55 PM,48.7,37.2,64,30.01,10.0,North,-9999.0,-,N/A,,Overcast,0,2013-02-15 17:55:00
1:15 PM,49.5,37.6,64,30.00,10.0,North,-9999.0,-,N/A,,Overcast,0,2013-02-15 18:15:00
1:35 PM,47.7,36.9,66,30.00,10.0,North,-9999.0,-,N/A,,Overcast,0,2013-02-15 18:35:00
1:55 PM,46.0,36.5,69,30.01,10.0,North,-9999.0,-,N/A,,Light Drizzle,0,2013-02-15 18:55:00
2:15 PM,43.5,37.0,78,30.02,7.0,North,-9999.0,-,N/A,Rain,Light Rain,0,2013-02-15 19:15:00
2:35 PM,39.2,36.5,90,30.03,3.0,North,-9999.0,-,N/A,,Overcast,0,2013-02-15 19:35:00
2:55 PM,37.6,36.1,95,30.04,3.0,North,-9999.0,-,N/A,Snow,Light Snow,0,2013-02-15 19:55:00
3:35 PM,36.1,35.8,99,30.05,1.5,North,-9999.0,-,N/A,Snow,Light Snow,0,2013-02-15 20:35:00
3:55 PM,36.7,36.5,99,30.05,7.0,North,-9999.0,-,N/A,Snow,Light Snow,0,2013-02-15 20:55:00
4:15 PM,37.0,36.9,99,30.05,3.0,North,-9999.0,-,N/A,Snow,Light Snow,0,2013-02-15 21:15:00
4:35 PM,36.5,36.3,99,30.05,1.2,North,-9999.0,-,N/A,Snow,Light Snow,0,2013-02-15 21:35:00
4:55 PM,36.7,36.7,100,30.06,4.0,North,-9999.0,-,N/A,Snow,Light Snow,0,2013-02-15 21:55:00
5:15 PM,36.5,36.5,100,30.06,2.0,North,-9999.0,-,N/A,Snow,Light Snow,0,2013-02-15 22:15:00
5:35 PM,36.1,36.1,100,30.06,1.5,North,-9999.0,-,N/A,Snow,Light Snow,0,2013-02-15 22:35:00
5:55 PM,36.0,36.0,100,30.08,4.0,North,-9999.0,-,N/A,Snow,Light Snow,0,2013-02-15 22:55:00
6:15 PM,36.1,36.1,100,30.08,7.0,North,-9999.0,-,N/A,Snow,Light Snow,0,2013-02-15 23:15:00
6:35 PM,36.3,36.3,100,30.08,7.0,North,-9999.0,-,N/A,Snow,Light Snow,0,2013-02-15 23:35:00
6:55 PM,36.5,36.5,100,30.08,7.0,North,-9999.0,-,N/A,,Overcast,0,2013-02-15 23:55:00
7:15 PM,36.5,36.5,100,30.09,7.0,North,-9999.0,-,N/A,,Overcast,0,2013-02-16 00:15:00
7:35 PM,36.5,36.5,100,30.10,7.0,North,-9999.0,-,N/A,,Overcast,0,2013-02-16 00:35:00
7:55 PM,36.5,36.5,100,30.10,10.0,North,-9999.0,-,N/A,,Overcast,0,2013-02-16 00:55:00
8:15 PM,36.5,36.5,100,30.10,7.0,North,-9999.0,-,N/A,,Overcast,0,2013-02-16 01:15:00
8:35 PM,36.1,36.1,100,30.10,7.0,North,-9999.0,-,N/A,,Overcast,0,2013-02-16 01:35:00
8:55 PM,36.0,36.0,100,30.10,10.0,North,-9999.0,-,N/A,,Overcast,0,2013-02-16 01:55:00
9:15 PM,35.8,35.8,100,30.10,10.0,North,-9999.0,-,N/A,,Overcast,0,2013-02-16 02:15:00
9:35 PM,35.8,35.6,99,30.10,7.0,North,-9999.0,-,N/A,Snow,Light Snow,0,2013-02-16 02:35:00
9:55 PM,35.8,35.6,99,30.10,7.0,North,-9999.0,-,N/A,Snow,Light Snow,0,2013-02-16 02:55:00
10:15 PM,35.2,34.9,99,30.10,7.0,North,-9999.0,-,N/A,,Overcast,0,2013-02-16 03:15:00
10:35 PM,34.9,34.7,99,30.10,7.0,North,-9999.0,-,N/A,,Overcast,0,2013-02-16 03:35:00
10:55 PM,34.9,34.5,99,30.10,10.0,North,-9999.0,-,N/A,,Overcast,0,2013-02-16 03:55:00
11:15 PM,34.2,33.8,99,30.09,10.0,North,-9999.0,-,N/A,,Mostly Cloudy,0,2013-02-16 04:15:00
11:35 PM,34.0,33.8,99,30.08,7.0,North,-9999.0,-,N/A,,Overcast,0,2013-02-16 04:35:00
11:55 PM,33.8,33.8,100,30.08,4.0,North,-9999.0,-,N/A,Snow,Light Snow,0,2013-02-16 04:55:00